2025-292E (66997 NORAD) Tracking and Keplerian Element Data

This shows tracking and keplerian element data for the satellite.

Feedback or suggestion? Click here.




ElementValue
Catalog66997
Name2025-292E
Epoch Orbit150
Epoch Day354.18809087
Epoch Year2025
RAAN66.6718
Inclination97.6537
Eccentricity0.0013586
Argument of Perigee249.1566
Mean Anonmoly110.8205
Mean Motion15.04727729
Decay Rate2.445E-05
L11 66997U 25292E 25354.18809087 .00002445 00000+0 17765-3 0 9990
L22 66997 97.6537 66.6718 0013586 249.1566 110.8205 15.04727729 1503



Live tracking and technical data element details for 2025-292E (NORAD 66997). 2025-292E can be tracked NOW for your location showing map with azimuth and elevation plus other details from your city location.







IsCatalogInMostPopularTable: catalog: 66997, numindb: 12
Update: records affected: 1



GetName: 66997 2025-292E

Hit Count: updated at: Fri, 16 Jan 2026 10:12:12 GMT